When you browse on this site, cookies collect data to enhance your experience and personalize the content and advertising you see.
Visit our Privacy Policy to learn more. By continuing to use the site, you agree to this use of cookies and data.
  • In Belgien
  • Länderverzeichnis
  • Für 7 Tage
  • Wassertemperatur
  • Satellitenkarten
  • Wetterkarte
  • Widgets
  • user-avatar
    Anmelden

    Stündliche Wetter Brüssel

    Heute, 19 Dezember, Mittwoch

    Zeit Temperatur Niederschläge Wind Luftdruck Luftfeuchtigkeit
    00:00 +4°C° 0.1 mm 7 m/S 754 mmHg 73%
    01:00 +4°C° 0.5 mm 7 m/S 754 mmHg 77%
    02:00 +5°C° 0.5 mm 7 m/S 754 mmHg 82%
    03:00 +5°C° 0.5 mm 7 m/S 753 mmHg 86%
    04:00 +5°C° 0 mm 6 m/S 754 mmHg 87%
    05:00 +5°C° 0 mm 6 m/S 754 mmHg 88%
    06:00 +7°C° 0 mm 6 m/S 754 mmHg 89%
    07:00 +7°C° 0 mm 6 m/S 754 mmHg 89%
    08:00 +7°C° 0 mm 6 m/S 754 mmHg 88%
    09:00 +7°C° 0 mm 6 m/S 755 mmHg 87%
    10:00 +7°C° 0 mm 6 m/S 754 mmHg 85%
    11:00 +8°C° 0 mm 6 m/S 754 mmHg 83%
    12:00 +8°C° 0 mm 7 m/S 754 mmHg 82%
    13:00 +8°C° 0 mm 6 m/S 754 mmHg 82%
    14:00 +7°C° 0 mm 6 m/S 754 mmHg 82%
    15:00 +7°C° 0 mm 5 m/S 754 mmHg 82%
    16:00 +7°C° 0 mm 5 m/S 754 mmHg 83%
    17:00 +7°C° 0 mm 5 m/S 754 mmHg 83%
    18:00 +7°C° 0 mm 4 m/S 754 mmHg 84%
    19:00 +7°C° 0 mm 5 m/S 754 mmHg 85%
    20:00 +6°C° 0 mm 5 m/S 754 mmHg 87%
    21:00 +6°C° 0 mm 5 m/S 755 mmHg 88%
    22:00 +6°C° 0 mm 5 m/S 755 mmHg 89%
    23:00 +5°C° 0 mm 5 m/S 755 mmHg 90%

    Morgen, 20 Dezember, Donnerstag

    Zeit Temperatur Niederschläge Wind Luftdruck Luftfeuchtigkeit
    00:00 +5°C° 0 mm 5 m/S 755 mmHg 90%
    01:00 +4°C° 0 mm 6 m/S 754 mmHg 90%
    02:00 +4°C° 0 mm 6 m/S 754 mmHg 89%
    03:00 +4°C° 0 mm 7 m/S 754 mmHg 88%
    04:00 +4°C° 0.3 mm 7 m/S 754 mmHg 88%
    05:00 +5°C° 0.3 mm 7 m/S 754 mmHg 87%
    06:00 +5°C° 0.3 mm 7 m/S 754 mmHg 86%
    07:00 +5°C° 0.1 mm 7 m/S 755 mmHg 86%
    08:00 +5°C° 0.1 mm 7 m/S 755 mmHg 85%
    09:00 +5°C° 0.1 mm 7 m/S 755 mmHg 85%
    10:00 +5°C° 0.1 mm 7 m/S 755 mmHg 83%
    11:00 +6°C° 0.1 mm 7 m/S 755 mmHg 82%
    12:00 +6°C° 0.1 mm 8 m/S 756 mmHg 81%
    13:00 +6°C° 0.2 mm 7 m/S 756 mmHg 81%
    14:00 +6°C° 0.2 mm 7 m/S 756 mmHg 81%
    15:00 +6°C° 0.2 mm 7 m/S 756 mmHg 81%
    16:00 +6°C° 0.1 mm 7 m/S 756 mmHg 81%
    17:00 +6°C° 0.1 mm 7 m/S 756 mmHg 81%
    18:00 +6°C° 0.1 mm 7 m/S 756 mmHg 81%
    19:00 +6°C° 0.2 mm 7 m/S 756 mmHg 81%
    20:00 +6°C° 0.2 mm 7 m/S 755 mmHg 80%
    21:00 +6°C° 0.2 mm 7 m/S 755 mmHg 80%
    22:00 +6°C° 0.1 mm 7 m/S 755 mmHg 82%
    23:00 +6°C° 0.1 mm 7 m/S 755 mmHg 84%

    übermorgen, 21 Dezember, Freitag

    Zeit Temperatur Niederschläge Wind Luftdruck Luftfeuchtigkeit
    00:00 +6°C° 0.1 mm 7 m/S 754 mmHg 86%
    01:00 +8°C° 0.7 mm 7 m/S 753 mmHg 87%
    02:00 +8°C° 0.7 mm 7 m/S 752 mmHg 89%
    03:00 +8°C° 0.7 mm 7 m/S 751 mmHg 90%
    04:00 +9°C° 1.1 mm 7 m/S 750 mmHg 90%
    05:00 +10°C° 1.1 mm 8 m/S 749 mmHg 89%
    06:00 +11°C° 1.1 mm 9 m/S 748 mmHg 89%
    07:00 +11°C° 1 mm 9 m/S 748 mmHg 88%
    08:00 +12°C° 1 mm 9 m/S 747 mmHg 87%
    09:00 +12°C° 1 mm 10 m/S 747 mmHg 86%
    10:00 +12°C° 0.1 mm 10 m/S 748 mmHg 81%
    11:00 +11°C° 0.1 mm 11 m/S 749 mmHg 77%
    12:00 +9°C° 0.1 mm 11 m/S 749 mmHg 72%
    13:00 +9°C° 0 mm 10 m/S 750 mmHg 72%
    14:00 +9°C° 0 mm 10 m/S 751 mmHg 72%
    15:00 +10°C° 0 mm 9 m/S 752 mmHg 72%
    16:00 +9°C° 0 mm 8 m/S 752 mmHg 75%
    17:00 +9°C° 0 mm 8 m/S 753 mmHg 77%
    18:00 +9°C° 0 mm 7 m/S 753 mmHg 79%
    19:00 +8°C° 0 mm 7 m/S 753 mmHg 82%
    20:00 +8°C° 0 mm 7 m/S 753 mmHg 85%
    21:00 +8°C° 0 mm 7 m/S 753 mmHg 87%
    22:00 +8°C° 0 mm 6 m/S 752 mmHg 87%
    23:00 +8°C° 0 mm 6 m/S 751 mmHg 87%

    22 Dezember, Samstag

    Zeit Temperatur Niederschläge Wind Luftdruck Luftfeuchtigkeit
    00:00 +8°C° 0 mm 6 m/S 751 mmHg 87%
    01:00 +9°C° 0.2 mm 8 m/S 750 mmHg 84%
    02:00 +10°C° 0.2 mm 9 m/S 750 mmHg 82%
    03:00 +11°C° 0.2 mm 11 m/S 750 mmHg 80%
    04:00 +11°C° 0.4 mm 10 m/S 750 mmHg 81%
    05:00 +10°C° 0.4 mm 9 m/S 751 mmHg 82%
    06:00 +10°C° 0.4 mm 8 m/S 752 mmHg 84%
    07:00 +9°C° 0.1 mm 8 m/S 753 mmHg 83%
    08:00 +9°C° 0.1 mm 7 m/S 753 mmHg 82%
    09:00 +9°C° 0.1 mm 7 m/S 754 mmHg 82%
    10:00 +9°C° 0 mm 8 m/S 755 mmHg 78%
    11:00 +9°C° 0 mm 8 m/S 755 mmHg 74%
    12:00 +10°C° 0 mm 9 m/S 756 mmHg 70%
    13:00 +9°C° 0 mm 8 m/S 756 mmHg 70%
    14:00 +9°C° 0 mm 7 m/S 757 mmHg 70%
    15:00 +8°C° 0 mm 6 m/S 758 mmHg 70%
    16:00 +8°C° 0 mm 6 m/S 758 mmHg 73%
    17:00 +7°C° 0 mm 5 m/S 759 mmHg 76%
    18:00 +6°C° 0 mm 5 m/S 760 mmHg 79%
    19:00 +7°C° 0.2 mm 5 m/S 760 mmHg 81%
    20:00 +7°C° 0.2 mm 5 m/S 760 mmHg 84%
    21:00 +7°C° 0.2 mm 5 m/S 761 mmHg 87%
    22:00 +7°C° 0.1 mm 5 m/S 761 mmHg 88%
    23:00 +7°C° 0.1 mm 5 m/S 761 mmHg 89%

    23 Dezember, Sonntag

    Zeit Temperatur Niederschläge Wind Luftdruck Luftfeuchtigkeit
    00:00 +7°C° 0.1 mm 5 m/S 761 mmHg 90%
    01:00 +6°C° 0 mm 4 m/S 761 mmHg 90%
    02:00 +6°C° 0 mm 4 m/S 762 mmHg 91%
    03:00 +6°C° 0 mm 4 m/S 762 mmHg 91%
    04:00 +6°C° 0 mm 4 m/S 762 mmHg 92%
    05:00 +5°C° 0 mm 4 m/S 762 mmHg 92%
    06:00 +5°C° 0 mm 4 m/S 763 mmHg 92%
    07:00 +5°C° 0 mm 3 m/S 763 mmHg 91%
    08:00 +5°C° 0 mm 3 m/S 763 mmHg 91%
    09:00 +5°C° 0 mm 3 m/S 764 mmHg 90%
    10:00 +7°C° 0 mm 3 m/S 764 mmHg 87%
    11:00 +7°C° 0 mm 3 m/S 764 mmHg 85%
    12:00 +8°C° 0 mm 3 m/S 764 mmHg 82%
    13:00 +8°C° 0 mm 3 m/S 764 mmHg 84%
    14:00 +7°C° 0 mm 3 m/S 764 mmHg 86%
    15:00 +7°C° 0 mm 2 m/S 765 mmHg 88%
    16:00 +7°C° 0 mm 2 m/S 765 mmHg 89%
    17:00 +7°C° 0 mm 2 m/S 765 mmHg 91%
    18:00 +7°C° 0 mm 2 m/S 765 mmHg 92%
    19:00 +7°C° 0.3 mm 2 m/S 765 mmHg 93%
    20:00 +7°C° 0.3 mm 2 m/S 765 mmHg 94%
    21:00 +8°C° 0.3 mm 1 m/S 765 mmHg 94%
    22:00 +8°C° 0.2 mm 1 m/S 765 mmHg 94%
    23:00 +8°C° 0.2 mm 1 m/S 765 mmHg 95%

    24 Dezember, Montag

    Zeit Temperatur Niederschläge Wind Luftdruck Luftfeuchtigkeit
    00:00 +8°C° 0.2 mm 1 m/S 765 mmHg 95%
    01:00 +8°C° 0.1 mm 1 m/S 765 mmHg 94%
    02:00 +8°C° 0.1 mm 1 m/S 765 mmHg 94%
    03:00 +8°C° 0.1 mm 1 m/S 765 mmHg 93%
    04:00 +8°C° 0 mm 1 m/S 765 mmHg 93%
    05:00 +7°C° 0 mm 2 m/S 765 mmHg 92%
    06:00 +7°C° 0 mm 2 m/S 765 mmHg 91%
    07:00 +7°C° 0.1 mm 2 m/S 765 mmHg 91%
    08:00 +7°C° 0.1 mm 2 m/S 766 mmHg 90%
    09:00 +7°C° 0.1 mm 3 m/S 766 mmHg 90%
    10:00 +8°C° 0.1 mm 3 m/S 766 mmHg 90%
    11:00 +8°C° 0.1 mm 3 m/S 765 mmHg 90%
    12:00 +9°C° 0.1 mm 3 m/S 765 mmHg 91%
    13:00 +9°C° 0.1 mm 3 m/S 765 mmHg 92%
    14:00 +9°C° 0.1 mm 3 m/S 765 mmHg 93%
    15:00 +10°C° 0.1 mm 3 m/S 765 mmHg 95%
    16:00 +10°C° 0 mm 3 m/S 765 mmHg 95%
    17:00 +10°C° 0 mm 3 m/S 765 mmHg 95%
    18:00 +10°C° 0 mm 3 m/S 765 mmHg 95%
    19:00 +10°C° 0 mm 3 m/S 765 mmHg 95%
    20:00 +10°C° 0 mm 3 m/S 766 mmHg 95%
    21:00 +10°C° 0 mm 3 m/S 766 mmHg 95%
    22:00 +9°C° 0 mm 3 m/S 766 mmHg 96%
    23:00 +9°C° 0 mm 3 m/S 765 mmHg 96%
    Mehr zeigen